Home   Weather   Maribor   Past weeks

Flag for Slovenia Past Weather in Maribor, Slovenia — Yesterday and Last 2 Weeks

Now
48 °F

Fog.


Feels Like: 48 °F
Forecast: 51 / 74 °F
Wind: 1 mph from Northwest

Location: Maribor / Slivnica

Current Time: Sep 29, 2016 at 5:34:15 AM

Latest Report: Sep 29, 2016 at 4:00 AM


Visibility: 3 mi

Pressure: 30.34 "Hg

Humidity: 97%

Dew Point: 47 °F

Location of MariborLocation

Past Weather in Maribor — Graph

°F

Maribor Temperature Yesterday

Maximum temperature yesterday: 71 °F (at 4:00 PM)
Minimum temperature yesterday: 45 °F (at 7:00 AM)
Average temperature yesterday: 57 °F

High & Low Weather Summary for the Past Weeks

 TemperatureHumidityPressure
High80 °F (Sep 15, 3:00 PM)98% (Sep 15, 8:00 AM)30.42 "Hg (Sep 15, 8:00 AM)
Low42 °F (Sep 23, 6:00 AM)36% (Sep 24, 3:00 PM)29.75 "Hg (Sep 19, 5:00 PM)
Average60 °F77%30.08 "Hg
* Reported Sep 14 4:00 AM — Sep 29 4:00 AM, Maribor, Weather by CustomWeather, © 2016

Note: Actual official high and low records may vary slightly from our data, if they occured in-between our weather recording intervals... More about our weather records

Advertising

Maribor Weather History for the Previous 24 Hours

Scroll right to see more
 ConditionsComfort  
Time TempWeatherWind HumidityBarometerVisibility
4:00 AM
Thu, Sep 29
48 °FFog.1 mph97%30.34 "Hg3 mi
3:00 AM48 °FFog.1 mph96%30.34 "Hg2 mi
2:00 AM50 °FFog.1 mph96%30.35 "Hg4 mi
1:00 AM51 °FFog.1 mph97%30.35 "Hg2 mi
12:00 AM51 °FFog.1 mph94%30.36 "Hg4 mi
11:00 PM
Wed, Sep 28
53 °FCool.1 mph91%30.36 "Hg6 mi
10:00 PM54 °FPassing clouds.1 mph89%30.35 "Hg12 mi
9:00 PM58 °FPassing clouds.1 mph81%30.34 "Hg12 mi
8:00 PM61 °FPassing clouds.2 mph72%30.34 "Hg12 mi
7:00 PM65 °FPassing clouds.2 mph64%30.32 "Hg19 mi
6:00 PM69 °FPartly sunny.2 mph56%30.31 "Hg19 mi
5:00 PM71 °FScattered clouds.3 mph48%30.30 "Hg19 mi
4:00 PM71 °FScattered clouds.3 mph47%30.31 "Hg19 mi
3:00 PM70 °FPartly sunny.3 mph45%30.33 "Hg19 mi
2:00 PM71 °FPartly sunny.2 mph43%30.35 "Hg16 mi
12:00 PM69 °FPartly sunny.3 mph51%30.39 "Hg12 mi
11:00 AM64 °FScattered clouds.1 mph62%30.41 "Hg12 mi
10:00 AM60 °FPassing clouds.1 mph73%30.42 "Hg6 mi
9:00 AM54 °FSunny.No wind87%30.41 "Hg6 mi
8:00 AM47 °FSunny.No wind97%30.42 "Hg6 mi
7:00 AM45 °FFog.1 mph97%30.42 "Hg6 mi
6:00 AM46 °FPassing clouds.1 mph96%30.41 "Hg6 mi
5:00 AM46 °FFog.1 mph97%30.42 "Hg4 mi
Weather by CustomWeather, © 2016

See weather overviewHow to use our weather pages